Regional Weather Roundup
Issued by NWS Upton, NY

Current Version | Previous Version | Graphics & Text | Print | Product List | Glossary Off
Versions: 1 2 3 4 5 6 7 8 9 10 11 12 13 14 15 16 17 18 19 20 21 22 23 24 25 26 27

000
ASUS41 KOKX 220908
RWROKX

REGIONAL WEATHER ROUNDUP
NATIONAL WEATHER SERVICE NEW YORK NY
400 AM EST SUN JAN 22 2017

NOTE: "FAIR" INDICATES FEW OR NO CLOUDS BELOW 12,000 FEET WITH NO
SIGNIFICANT WEATHER AND/OR OBSTRUCTIONS TO VISIBILITY.

NYZ071-072-176-178-NJZ106-104-221000-
NEW YORK CITY METRO AREA

CITY           SKY/WX    TMP DP  RH WIND       PRES   REMARKS
Central Park   MOCLDY    43  43 100 CALM      29.74F FOG
Wall St Helipt CLOUDY    43  43 100 CALM      29.73F
LaGuardia APRT FOG       46  43  89 NE3       29.72F VSB 1
Kennedy INTL   FOG       44  44 100 S5        29.73F VSB 1/8
Breezy Point     N/A     41 N/A N/A S5          N/A
Newark/Liberty CLOUDY    44  43  96 CALM      29.72F FOG
Teterboro      CLOUDY    45  44  97 CALM      29.71F FOG
$$

NYZ177-179-078>081-221000-
LONG ISLAND NEW YORK

CITY           SKY/WX    TMP DP  RH WIND       PRES   REMARKS
Jones Beach      N/A     41 N/A N/A S5          N/A
Matinecock PT    N/A     43 N/A N/A N5          N/A
Farmingdale    FOG       44  44 100 CALM      29.73F VSB 3/4
MacArthur/ISP  FOG       42  42 100 CALM      29.72F VSB 1
Shirley        CLOUDY    42  42 100 CALM      29.75F FOG
Westhampton    FOG       42  41  96 VRB6      29.77S VSB 1
Southampton    NOT AVBL
Bridgehampton  NOT AVBL
East Hampton   FOG       40  40  99 CALM      29.74F VSB 1/2
Montauk          N/A     41  41 100 CALM      29.76F
$$

NYZ052-065-067-221000-
HUDSON VALLEY

CITY           SKY/WX    TMP DP  RH WIND       PRES   REMARKS
White Plains   FOG       44  42  93 NE3       29.72F VSB 1/4
Newburgh       FOG       41  41 100 CALM      29.74R VSB 1/2
Montgomery     FOG       42  41  96 SW3       29.72S VSB 3/4
Poughkeepsie   CLOUDY    40  40 100 CALM      29.73R FOG
Albany         FOG       38  36  92 N5        29.74F VSB 3/4 WCI  34
$$

NJZ001-105-106-008-010-013-015-019>022-104-221000-
NEW JERSEY

CITY           SKY/WX    TMP DP  RH WIND       PRES   REMARKS
Newark/Liberty CLOUDY    44  43  96 CALM      29.72F FOG
Teterboro      CLOUDY    45  44  97 CALM      29.71F FOG
Caldwell       FOG       43  43 100 VRB3      29.72F VSB 3/4
Somerville     FOG       44  42  93 CALM      29.71F VSB 1/4
Linden         CLOUDY    44  43  99 CALM      29.72F FOG
Sussex         CLOUDY    41  41 100 CALM      29.71F FOG
Andover          N/A     40  39  97 CALM      29.70F
Trenton        FOG       44  44 100 CALM      29.73F VSB 1/4
Millville      LGT RAIN  45  45 100 E5        29.73S
Atlantic City  LGT RAIN  45  44  97 CALM      29.73F FOG
Wrightstown    FOG       45  45 100 CALM      29.70S VSB 1/2
Toms River     LGT RAIN  45  45 100 SE6       29.72F VSB 1/4
Belmar         FOG       44  44 100 CALM      29.73F VSB 1/4
$$

PAZ047>061-062-071-221000-
EASTERN PENNSYLVANIA

CITY           SKY/WX    TMP DP  RH WIND       PRES   REMARKS
Philadelphia   FOG       46  45  96 CALM      29.74S VSB 1/2
Allentown      FOG       44  41  89 S5        29.72F VSB 1/4
Scranton       CLOUDY    43  43 100 CALM      29.72F FOG
$$

CTZ002-004>006-009-010-012-RIZ004-006-007-MAZ004-011-015-221000-
SOUTHERN NEW ENGLAND
 IN CT

CITY           SKY/WX    TMP DP  RH WIND       PRES   REMARKS
Bradley INTL   FOG       38  38 100 CALM      29.74F VSB 1/4
Hartford       CLOUDY    38  38 100 CALM      29.74F FOG
Danbury        CLOUDY    38  36  92 CALM      29.75R FOG
Wtrbury/Oxford CLOUDY    41  37  87 CALM      29.73F
Bridgeport     FOG       43  41  93 SW3       29.75S VSB 1/4
Meriden        FOG       41  38  89 CALM      29.73F VSB 1/4
New Haven      FOG       40  40 100 S5        29.75S VSB 1/4
Chester        PTSUNNY   41  41 100 MISG      29.73F FOG
Groton         FOG       40  39  97 CALM      29.75S VSB 1/2
Wilimantic     FOG       36  36 100 CALM      29.75F VSB 1/2

 IN RI

CITY           SKY/WX    TMP DP  RH WIND       PRES   REMARKS
Providence     FOG       37  35  92 CALM      29.75F VSB 1/4
Block Island   NOT AVBL
Westerly       FOG       40  38  93 CALM      29.75F VSB 1/4
 IN MA

CITY           SKY/WX    TMP DP  RH WIND       PRES   REMARKS
Boston         CLOUDY    40  40 100 S3        29.75S
Worcester      CLOUDY    45  40  82 N5        29.72S
Westfield      FOG       35  35 100 W3        29.74F VSB 1/4
Provincetown   FOG       39  39 100 S5        29.75S VSB 1/2
Nantucket      FOG       40  40 100 W6        29.75F VSB 1/4
$$

ANZ330-335-338-340-345-350-353-355-221000-
COASTAL MARINE OBSERVATIONS


STATION/POSITION TIME  SKY/WX   TEMP    WIND        PRES    VSBY  WAVE
                                AIR SEA DIR/SP/G                  HT/PER
                 (UTC)          (F)     (DEG/KT/KT) (MB)    (MI)  (FT/S)
NY HARB ENTRANCE 0750            44 43   80/  2/  4 1007.5          3/14
20 S FIRE ISLAND 0850            44 45   CALM  /  2 1006.7          3/14
GREAT SOUTH BAY  NOT AVBL
23 SSW MONTAUK P 0750            44 47  260/  6/  8 1008.2          3/14
15 E BARNEGAT LI 0830               47                N/A           4/13
HUDSON CANYON    0750            50 51              1008.0          5/11
KINGS POINT      0836            43 40              1006.4
EXECUTION ROCKS  0845            44      70/  2/  4   N/A
CENTRAL LI SOUND 0830            40     200/  4/  6   N/A           0
EASTERN LI SOUND NOT AVBL
ROBBINS REEF     0836            43      90/  3/  4 1006.7
$$


>>>>>>>>>>>>>>>>>>>>>>>>>>>> KEY <<<<<<<<<<<<<<<<<<<<<<<<<<<
>                                                          <
>     SKY/WX - Sky Condition/Present Weather               <
>     TMP    - Temperature in Fahrenheit                   <
>     DP     - Dew Point in Fahrenheit                     <
>     RH     - Relative Humidity in Percent                <
>     WIND   - Direction (from) and Speed in MPH           <
>     PRES   - Mean Sea Level Pressure (inches of Hg)      <
>     WCI    - Wind Chill Index                            <
>     VSB    - VISIBILITY IN MILES                         <
>     HX     - HEAT INDEX                                  <
>     TC     - TEMPERATURE IN CELSIUS                      <
>     VRB    - VARIABLE WIND DIRECTION                     <
>                                                          <
>>>>>>>>>>>>>>>>>>>>>>>>>>>> KEY <<<<<<<<<<<<<<<<<<<<<<<<<<<




USA.gov is the U.S. government's official web portal to all federal, state and local government web resources and services.